Time,TemperatureF,DewpointF,PressureIn,WindDirection,WindDirectionDegrees,WindSpeedMPH,WindSpeedGustMPH,Humidity,HourlyPrecipIn,Conditions,Clouds,dailyrainin,SoftwareType,DateUTC
2013-02-16 00:13:00,39.2,38.0,29.97,WSW,258,0.0,0.0,96,0.00,,,0.00,weatherlink.com 1.10,2013-02-16 05:13:00,
2013-02-16 00:28:00,39.3,39.0,29.97,WSW,257,0.0,0.0,97,0.00,,,0.00,weatherlink.com 1.10,2013-02-16 05:28:00,
2013-02-16 00:43:00,39.1,38.0,29.96,WSW,257,0.0,0.0,97,0.00,,,0.00,weatherlink.com 1.10,2013-02-16 05:43:00,
2013-02-16 00:58:00,38.4,38.0,29.96,WSW,258,0.0,0.0,97,0.00,,,0.00,weatherlink.com 1.10,2013-02-16 05:58:00,
2013-02-16 01:13:00,38.2,38.0,29.95,WSW,258,0.0,0.0,97,0.00,,,0.00,weatherlink.com 1.10,2013-02-16 06:13:00,
2013-02-16 01:28:00,38.8,38.0,29.95,WSW,257,0.0,0.0,97,0.00,,,0.00,weatherlink.com 1.10,2013-02-16 06:28:00,
2013-02-16 01:43:00,39.2,39.0,29.94,SSW,199,0.0,1.0,97,0.00,,,0.00,weatherlink.com 1.10,2013-02-16 06:43:00,
2013-02-16 01:58:00,39.1,38.0,29.94,SSW,200,0.0,1.0,97,0.00,,,0.00,weatherlink.com 1.10,2013-02-16 06:58:00,
2013-02-16 02:13:00,38.9,38.0,29.94,SSW,200,0.0,0.0,97,0.00,,,0.00,weatherlink.com 1.10,2013-02-16 07:13:00,
2013-02-16 02:28:00,39.1,38.0,29.94,SW,233,0.0,1.0,97,0.00,,,0.00,weatherlink.com 1.10,2013-02-16 07:28:00,
2013-02-16 02:43:00,39.0,38.0,29.94,SW,232,0.0,0.0,97,0.00,,,0.00,weatherlink.com 1.10,2013-02-16 07:43:00,
2013-02-16 02:58:00,38.9,38.0,29.94,SW,232,0.0,0.0,97,0.00,,,0.00,weatherlink.com 1.10,2013-02-16 07:58:00,
2013-02-16 03:13:00,39.2,39.0,29.93,SW,232,0.0,0.0,97,0.00,,,0.00,weatherlink.com 1.10,2013-02-16 08:13:00,
2013-02-16 03:28:00,39.4,39.0,29.92,SW,232,0.0,0.0,97,0.00,,,0.00,weatherlink.com 1.10,2013-02-16 08:28:00,
2013-02-16 03:43:00,39.8,39.0,29.91,SW,232,0.0,0.0,97,0.00,,,0.00,weatherlink.com 1.10,2013-02-16 08:43:00,
2013-02-16 03:58:00,39.8,39.0,29.90,SW,232,0.0,0.0,97,0.00,,,0.00,weatherlink.com 1.10,2013-02-16 08:58:00,
2013-02-16 04:13:00,39.4,39.0,29.90,SW,232,0.0,0.0,97,0.00,,,0.00,weatherlink.com 1.10,2013-02-16 09:13:00,
2013-02-16 04:28:00,38.7,38.0,29.89,SW,232,0.0,0.0,97,0.00,,,0.00,weatherlink.com 1.10,2013-02-16 09:28:00,
2013-02-16 04:43:00,41.2,41.0,29.90,NNW,334,2.0,8.0,98,0.00,,,0.00,weatherlink.com 1.10,2013-02-16 09:43:00,
2013-02-16 04:58:00,42.4,42.0,29.91,NNW,336,1.0,3.0,98,0.00,,,0.00,weatherlink.com 1.10,2013-02-16 09:58:00,
2013-02-16 05:13:00,42.3,42.0,29.90,NW,305,0.0,1.0,98,0.00,,,0.00,weatherlink.com 1.10,2013-02-16 10:13:00,
2013-02-16 05:28:00,41.9,41.0,29.89,NW,305,0.0,0.0,97,0.00,,,0.00,weatherlink.com 1.10,2013-02-16 10:28:00,
2013-02-16 05:43:00,41.2,40.0,29.90,NW,305,0.0,0.0,97,0.00,,,0.00,weatherlink.com 1.10,2013-02-16 10:43:00,
2013-02-16 05:58:00,40.6,40.0,29.88,NW,305,0.0,0.0,97,0.00,,,0.00,weatherlink.com 1.10,2013-02-16 10:58:00,
2013-02-16 06:13:00,40.3,40.0,29.89,NW,305,0.0,0.0,97,0.00,,,0.00,weatherlink.com 1.10,2013-02-16 11:13:00,
2013-02-16 06:28:00,39.4,39.0,29.88,NW,305,0.0,0.0,97,0.00,,,0.00,weatherlink.com 1.10,2013-02-16 11:28:00,
2013-02-16 06:43:00,38.9,38.0,29.89,WNW,303,0.0,0.0,97,0.00,,,0.00,weatherlink.com 1.10,2013-02-16 11:43:00,
2013-02-16 06:58:00,38.8,38.0,29.89,NW,305,0.0,0.0,97,0.00,,,0.00,weatherlink.com 1.10,2013-02-16 11:58:00,
2013-02-16 07:13:00,38.5,38.0,29.89,NW,305,0.0,0.0,97,0.00,,,0.00,weatherlink.com 1.10,2013-02-16 12:13:00,
2013-02-16 07:28:00,38.3,38.0,29.88,NW,305,0.0,0.0,97,0.00,,,0.00,weatherlink.com 1.10,2013-02-16 12:28:00,
2013-02-16 07:43:00,38.6,38.0,29.88,NW,305,0.0,0.0,97,0.00,,,0.00,weatherlink.com 1.10,2013-02-16 12:43:00,
2013-02-16 07:58:00,40.8,40.0,29.87,NW,305,0.0,0.0,98,0.00,,,0.00,weatherlink.com 1.10,2013-02-16 12:58:00,
2013-02-16 08:13:00,41.7,41.0,29.87,NW,305,0.0,1.0,97,0.00,,,0.00,weatherlink.com 1.10,2013-02-16 13:13:00,
2013-02-16 08:28:00,43.7,43.0,29.88,NNW,332,2.0,4.0,97,0.00,,,0.00,weatherlink.com 1.10,2013-02-16 13:28:00,
2013-02-16 08:44:00,44.9,44.0,29.88,NNW,331,2.0,6.0,95,0.00,,,0.00,weatherlink.com 1.10,2013-02-16 13:44:00,
2013-02-16 08:59:00,45.8,44.0,29.87,North,350,3.0,7.0,92,0.00,,,0.00,weatherlink.com 1.10,2013-02-16 13:59:00,
2013-02-16 09:14:00,46.9,43.0,29.87,NE,40,5.0,7.0,87,0.00,,,0.00,weatherlink.com 1.10,2013-02-16 14:14:00,
2013-02-16 09:29:00,47.2,42.0,29.87,NNE,29,7.0,9.0,83,0.00,,,0.00,weatherlink.com 1.10,2013-02-16 14:29:00,
2013-02-16 09:44:00,48.2,42.0,29.87,East,79,7.0,11.0,80,0.00,,,0.00,weatherlink.com 1.10,2013-02-16 14:44:00,
2013-02-16 09:59:00,49.0,42.0,29.87,North,357,4.0,9.0,78,0.00,,,0.00,weatherlink.com 1.10,2013-02-16 14:59:00,
2013-02-16 10:14:00,49.9,43.0,29.87,NNW,330,2.0,9.0,76,0.00,,,0.00,weatherlink.com 1.10,2013-02-16 15:14:00,
2013-02-16 10:29:00,50.9,43.0,29.86,NE,52,1.0,8.0,74,0.00,,,0.00,weatherlink.com 1.10,2013-02-16 15:29:00,
2013-02-16 10:44:00,51.3,43.0,29.86,NW,316,4.0,9.0,73,0.00,,,0.00,weatherlink.com 1.10,2013-02-16 15:44:00,
2013-02-16 10:59:00,51.8,43.0,29.85,East,84,2.0,7.0,71,0.00,,,0.00,weatherlink.com 1.10,2013-02-16 15:59:00,
2013-02-16 11:14:00,52.6,43.0,29.85,NE,37,4.0,9.0,70,0.00,,,0.00,weatherlink.com 1.10,2013-02-16 16:14:00,
2013-02-16 11:29:00,53.6,43.0,29.84,East,82,4.0,8.0,68,0.00,,,0.00,weatherlink.com 1.10,2013-02-16 16:29:00,
2013-02-16 11:44:00,53.4,43.0,29.84,NW,305,1.0,8.0,68,0.00,,,0.00,weatherlink.com 1.10,2013-02-16 16:44:00,
2013-02-16 11:59:00,52.4,42.0,29.83,NW,320,4.0,8.0,68,0.00,,,0.00,weatherlink.com 1.10,2013-02-16 16:59:00,
2013-02-16 12:14:00,52.6,42.0,29.83,NW,319,6.0,9.0,67,0.00,,,0.00,weatherlink.com 1.10,2013-02-16 17:14:00,
2013-02-16 12:29:00,52.9,42.0,29.82,North,357,2.0,9.0,67,0.00,,,0.00,weatherlink.com 1.10,2013-02-16 17:29:00,
2013-02-16 12:44:00,51.9,42.0,29.82,NNW,332,4.0,13.0,68,0.00,,,0.00,weatherlink.com 1.10,2013-02-16 17:44:00,
2013-02-16 12:59:00,50.9,41.0,29.81,NW,316,7.0,15.0,69,0.00,,,0.00,weatherlink.com 1.10,2013-02-16 17:59:00,
2013-02-16 13:14:00,50.3,40.0,29.80,West,265,9.0,13.0,68,0.00,,,0.00,weatherlink.com 1.10,2013-02-16 18:14:00,
2013-02-16 13:29:00,48.9,39.0,29.81,NNW,327,7.0,24.0,69,0.01,,,0.01,weatherlink.com 1.10,2013-02-16 18:29:00,
2013-02-16 13:44:00,46.7,38.0,29.82,NW,313,3.0,18.0,73,0.01,,,0.01,weatherlink.com 1.10,2013-02-16 18:44:00,
2013-02-16 13:59:00,44.8,39.0,29.83,NW,306,13.0,22.0,80,0.01,,,0.01,weatherlink.com 1.10,2013-02-16 18:59:00,
2013-02-16 14:14:00,41.5,38.0,29.84,North,3,6.0,19.0,87,0.02,,,0.02,weatherlink.com 1.10,2013-02-16 19:14:00,
2013-02-16 14:29:00,39.6,37.0,29.85,NW,316,7.0,20.0,89,0.02,,,0.03,weatherlink.com 1.10,2013-02-16 19:29:00,
2013-02-16 14:45:00,38.3,36.0,29.85,NNW,330,14.0,18.0,91,0.04,,,0.05,weatherlink.com 1.10,2013-02-16 19:45:00,
2013-02-16 15:00:00,38.1,36.0,29.85,NW,319,6.0,12.0,93,0.06,,,0.07,weatherlink.com 1.10,2013-02-16 20:00:00,
2013-02-16 15:15:00,38.1,36.0,29.85,NW,324,5.0,17.0,93,0.05,,,0.07,weatherlink.com 1.10,2013-02-16 20:15:00,
2013-02-16 15:30:00,38.2,36.0,29.85,NNW,329,4.0,14.0,93,0.05,,,0.08,weatherlink.com 1.10,2013-02-16 20:30:00,
2013-02-16 15:45:00,37.9,36.0,29.86,North,7,5.0,13.0,93,0.04,,,0.09,weatherlink.com 1.10,2013-02-16 20:45:00,
2013-02-16 16:00:00,38.0,36.0,29.86,NNW,344,7.0,14.0,93,0.03,,,0.10,weatherlink.com 1.10,2013-02-16 21:00:00,
2013-02-16 16:15:00,37.9,36.0,29.86,NNW,331,5.0,7.0,94,0.04,,,0.11,weatherlink.com 1.10,2013-02-16 21:15:00,
2013-02-16 16:30:00,37.8,36.0,29.85,NNW,345,3.0,12.0,93,0.03,,,0.11,weatherlink.com 1.10,2013-02-16 21:30:00,
2013-02-16 16:45:00,37.9,36.0,29.83,ENE,68,1.0,6.0,93,0.02,,,0.11,weatherlink.com 1.10,2013-02-16 21:45:00,
2013-02-16 17:00:00,38.1,36.0,29.82,ENE,66,2.0,5.0,93,0.01,,,0.11,weatherlink.com 1.10,2013-02-16 22:00:00,
2013-02-16 17:15:00,38.2,36.0,29.83,NW,318,4.0,5.0,93,0.00,,,0.11,weatherlink.com 1.10,2013-02-16 22:15:00,
2013-02-16 17:30:00,38.6,37.0,29.85,NW,320,3.0,6.0,94,0.00,,,0.11,weatherlink.com 1.10,2013-02-16 22:30:00,
2013-02-16 17:45:00,38.5,37.0,29.85,NW,324,4.0,8.0,94,0.00,,,0.11,weatherlink.com 1.10,2013-02-16 22:45:00,
2013-02-16 18:00:00,38.7,37.0,29.86,NW,305,9.0,9.0,94,0.00,,,0.11,weatherlink.com 1.10,2013-02-16 23:00:00,
2013-02-16 18:15:00,38.7,37.0,29.87,NW,317,8.0,9.0,94,0.00,,,0.11,weatherlink.com 1.10,2013-02-16 23:15:00,
2013-02-16 18:30:00,38.7,37.0,29.87,NNW,331,4.0,8.0,92,0.00,,,0.11,weatherlink.com 1.10,2013-02-16 23:30:00,
2013-02-16 18:45:00,38.7,37.0,29.88,NNW,338,1.0,5.0,92,0.00,,,0.11,weatherlink.com 1.10,2013-02-16 23:45:00,
2013-02-16 19:00:00,38.5,36.0,29.88,WSW,247,0.0,5.0,92,0.00,,,0.11,weatherlink.com 1.10,2013-02-17 00:00:00,
2013-02-16 19:15:00,38.0,36.0,29.88,NW,306,2.0,4.0,93,0.00,,,0.11,weatherlink.com 1.10,2013-02-17 00:15:00,
2013-02-16 19:30:00,37.8,36.0,29.88,NW,312,0.0,2.0,93,0.00,,,0.11,weatherlink.com 1.10,2013-02-17 00:30:00,
2013-02-16 19:45:00,38.0,37.0,29.89,NW,305,2.0,4.0,94,0.00,,,0.11,weatherlink.com 1.10,2013-02-17 00:45:00,
2013-02-16 20:00:00,38.2,36.0,29.88,WNW,291,0.0,4.0,93,0.00,,,0.11,weatherlink.com 1.10,2013-02-17 01:00:00,
2013-02-16 20:16:00,38.2,36.0,29.89,WNW,296,0.0,3.0,93,0.00,,,0.11,weatherlink.com 1.10,2013-02-17 01:16:00,
2013-02-16 20:30:00,38.2,36.0,29.88,WNW,296,1.0,2.0,93,0.00,,,0.11,weatherlink.com 1.10,2013-02-17 01:30:00,
2013-02-16 20:45:00,38.2,37.0,29.91,WNW,298,5.0,8.0,94,0.02,,,0.13,weatherlink.com 1.10,2013-02-17 01:45:00,
2013-02-16 21:00:00,33.8,32.0,29.91,NW,310,4.0,5.0,94,0.03,,,0.14,weatherlink.com 1.10,2013-02-17 02:00:00,
2013-02-16 21:15:00,33.6,32.0,29.90,West,268,0.0,2.0,95,0.03,,,0.14,weatherlink.com 1.10,2013-02-17 02:15:00,
2013-02-16 21:30:00,33.7,33.0,29.91,NW,321,0.0,2.0,96,0.03,,,0.14,weatherlink.com 1.10,2013-02-17 02:30:00,
2013-02-16 21:45:00,34.0,33.0,29.91,WNW,298,0.0,2.0,96,0.01,,,0.14,weatherlink.com 1.10,2013-02-17 02:45:00,
2013-02-16 22:00:00,34.3,33.0,29.93,NNW,330,2.0,3.0,96,0.00,,,0.14,weatherlink.com 1.10,2013-02-17 03:00:00,
2013-02-16 22:15:00,33.8,33.0,29.94,NW,326,8.0,9.0,96,0.01,,,0.15,weatherlink.com 1.10,2013-02-17 03:15:00,
2013-02-16 22:30:00,33.2,32.0,29.96,NW,305,4.0,14.0,96,0.01,,,0.15,weatherlink.com 1.10,2013-02-17 03:30:00,
2013-02-16 22:45:00,33.1,32.0,29.97,NW,309,7.0,17.0,96,0.01,,,0.15,weatherlink.com 1.10,2013-02-17 03:45:00,
2013-02-16 23:00:00,33.1,32.0,29.97,NW,319,6.0,9.0,96,0.01,,,0.15,weatherlink.com 1.10,2013-02-17 04:00:00,
2013-02-16 23:15:00,33.1,32.0,29.98,NNW,340,5.0,10.0,96,0.01,,,0.16,weatherlink.com 1.10,2013-02-17 04:15:00,
2013-02-16 23:30:00,33.1,32.0,29.98,NW,309,7.0,8.0,96,0.01,,,0.16,weatherlink.com 1.10,2013-02-17 04:30:00,
2013-02-16 23:45:00,33.2,32.0,29.98,NW,305,6.0,10.0,95,0.01,,,0.16,weatherlink.com 1.10,2013-02-17 04:45:00,